Change the Weather History Date:

Saturday, April 13, 2013

  Actual Average Record
Temperature  
Mean Temperature 36 °F -  
Max Temperature 41 °F 57 °F 87 °F (2006)
Min Temperature 30 °F 36 °F 20 °F (1950)
Degree Days  
Heating Degree Days 30    
Moisture  
Dew Point 27 °F    
Average Humidity 73    
Maximum Humidity 87    
Minimum Humidity 57    
Precipitation  
Precipitation 0.00 in - - ()
Sea Level Pressure  
Sea Level Pressure 29.90 in    
Wind  
Wind Speed 12 mph (WNW)    
Max Wind Speed 17 mph    
Max Gust Speed 25 mph    
Visibility 10 miles    
Events Snow    
Averages and records for this station are not official NWS values.
T = Trace of Precipitation, MM = Missing Value Source: NWS Daily Summary

Daily Weather History Graph

Daily Weather History Graph

Search for Another Location

Airport or City:

Trip Planner

Search our weather history database for the weather conditions in past years. The results will help you decide how hot, cold, wet, or windy it might be!

Date:

Astronomy

Apr. 13, 2013 Rise Set
Actual Time 6:31 AM CDT 7:51 PM CDT
Civil Twilight 6:02 AM CDT 8:20 PM CDT
Nautical Twilight 5:26 AM CDT 8:56 PM CDT
Astronomical Twilight 4:49 AM CDT 9:33 PM CDT
Moon 8:19 AM CDT (4/13) 11:19 PM CDT (4/13)
Length of Visible Light 14h 18m
Length of Day
13h 19m
Waxing Crescent, 10% of the Moon is Illuminated
Apr 13
Waxing Crescent
Apr 18
First Quarter
Apr 25
Full
May 2
Last Quarter
May 9
New

Hourly Weather History & Observations

Time (CDT) Temp. Windchill Dew Point Humidity Pressure Visibility Wind Dir Wind Speed Gust Speed Precip Events Conditions
12:15 AM 32.0 °F 23.0 °F 28.4 °F 87% 29.86 in 10.0 mi West 11.5 mph - N/A   Overcast
12:35 AM 32.0 °F 22.1 °F 28.4 °F 87% 29.86 in 10.0 mi West 13.8 mph - N/A   Overcast
12:55 AM 32.0 °F 23.0 °F 28.4 °F 87% 29.87 in 10.0 mi West 11.5 mph 18.4 mph N/A   Overcast
1:35 AM 32.0 °F 22.5 °F 26.6 °F 80% 29.87 in 10.0 mi West 12.7 mph - N/A   Overcast
1:55 AM 32.0 °F 21.6 °F 26.6 °F 80% 29.87 in 10.0 mi West 15.0 mph - N/A   Overcast
2:15 AM 32.0 °F 22.5 °F 26.6 °F 80% 29.86 in 10.0 mi West 12.7 mph - N/A   Overcast
2:35 AM 32.0 °F 21.2 °F 26.6 °F 80% 29.86 in 10.0 mi West 16.1 mph - N/A   Overcast
2:55 AM 32.0 °F 22.1 °F 26.6 °F 80% 29.86 in 10.0 mi West 13.8 mph - N/A Snow Light Snow
3:15 AM 30.2 °F 19.3 °F 26.6 °F 86% 29.86 in 10.0 mi West 15.0 mph 20.7 mph N/A   Overcast
3:35 AM 30.2 °F 18.5 °F 26.6 °F 86% 29.86 in 10.0 mi West 17.3 mph - N/A   Overcast
3:55 AM 30.2 °F 18.5 °F 24.8 °F 80% 29.87 in 10.0 mi West 17.3 mph 25.3 mph N/A   Overcast
4:15 AM 30.2 °F 19.3 °F 24.8 °F 80% 29.87 in 10.0 mi West 15.0 mph 21.9 mph N/A   Overcast
4:35 AM 30.2 °F 19.3 °F 24.8 °F 80% 29.87 in 10.0 mi West 15.0 mph 20.7 mph N/A   Overcast
4:55 AM 30.2 °F 19.3 °F 24.8 °F 80% 29.87 in 10.0 mi West 15.0 mph 21.9 mph N/A   Overcast
5:15 AM 30.2 °F 19.3 °F 24.8 °F 80% 29.87 in 10.0 mi West 15.0 mph - N/A   Overcast
5:35 AM 30.2 °F 18.9 °F 24.8 °F 80% 29.87 in 10.0 mi West 16.1 mph - N/A   Overcast
5:55 AM 30.2 °F 18.5 °F 24.8 °F 80% 29.88 in 10.0 mi WNW 17.3 mph - N/A   Overcast
6:15 AM 30.2 °F 20.2 °F 26.6 °F 86% 29.88 in 10.0 mi WNW 12.7 mph - N/A   Overcast
6:55 AM 30.2 °F 19.3 °F 24.8 °F 80% 29.89 in 10.0 mi West 15.0 mph - N/A   Overcast
7:15 AM 30.2 °F 19.8 °F 24.8 °F 80% 29.90 in 10.0 mi West 13.8 mph - N/A   Overcast
7:35 AM 30.2 °F 19.3 °F 24.8 °F 80% 29.91 in 10.0 mi WNW 15.0 mph 21.9 mph N/A   Overcast
7:55 AM 30.2 °F 19.3 °F 24.8 °F 80% 29.91 in 10.0 mi WNW 15.0 mph 21.9 mph N/A   Overcast
8:15 AM 30.2 °F 18.5 °F 24.8 °F 80% 29.91 in 10.0 mi WNW 17.3 mph - N/A   Overcast
8:55 AM 30.2 °F 18.5 °F 24.8 °F 80% 29.92 in 10.0 mi WNW 17.3 mph - N/A   Overcast
9:15 AM 30.2 °F 20.8 °F 24.8 °F 80% 29.92 in 10.0 mi WNW 11.5 mph 19.6 mph N/A   Overcast
9:35 AM 30.2 °F 19.8 °F 24.8 °F 80% 29.92 in 10.0 mi WNW 13.8 mph - N/A   Overcast
9:55 AM 32.0 °F 21.6 °F 24.8 °F 75% 29.93 in 10.0 mi WNW 15.0 mph - N/A   Overcast
10:15 AM 32.0 °F 21.2 °F 24.8 °F 75% 29.93 in 10.0 mi WNW 16.1 mph 23.0 mph N/A   Overcast
10:35 AM 32.0 °F 21.2 °F 24.8 °F 75% 29.94 in 10.0 mi WNW 16.1 mph 25.3 mph N/A   Overcast
10:55 AM 33.8 °F 24.3 °F 24.8 °F 70% 29.95 in 10.0 mi WNW 13.8 mph - N/A   Overcast
11:15 AM 33.8 °F 24.8 °F 24.8 °F 70% 29.95 in 10.0 mi West 12.7 mph - N/A   Overcast
11:35 AM 33.8 °F 24.3 °F 24.8 °F 70% 29.94 in 10.0 mi West 13.8 mph 23.0 mph N/A   Overcast
11:55 AM 33.8 °F 23.2 °F 26.6 °F 75% 29.94 in 10.0 mi West 17.3 mph - N/A   Overcast
12:15 PM 35.6 °F 26.6 °F 26.6 °F 70% 29.94 in 10.0 mi West 13.8 mph 20.7 mph N/A   Overcast
12:35 PM 35.6 °F 26.2 °F 26.6 °F 70% 29.94 in 10.0 mi West 15.0 mph 20.7 mph N/A   Overcast
12:55 PM 35.6 °F 25.9 °F 26.6 °F 70% 29.93 in 10.0 mi West 16.1 mph - N/A   Overcast
1:15 PM 35.6 °F 26.6 °F 26.6 °F 70% 29.93 in 10.0 mi West 13.8 mph - N/A   Overcast
1:35 PM 37.4 °F 28.2 °F 26.6 °F 65% 29.93 in 10.0 mi WNW 16.1 mph - N/A   Overcast
1:55 PM 37.4 °F 28.5 °F 26.6 °F 65% 29.92 in 10.0 mi NW 15.0 mph 21.9 mph N/A   Overcast
2:15 PM 37.4 °F 28.9 °F 28.4 °F 70% 29.92 in 10.0 mi WNW 13.8 mph 23.0 mph N/A   Overcast
2:35 PM 37.4 °F 29.8 °F 28.4 °F 70% 29.93 in 10.0 mi NW 11.5 mph 18.4 mph N/A   Overcast
2:55 PM 39.2 °F 32.0 °F 28.4 °F 65% 29.92 in 10.0 mi NW 11.5 mph - N/A   Overcast
3:15 PM 39.2 °F 32.0 °F 28.4 °F 65% 29.92 in 10.0 mi WNW 11.5 mph 17.3 mph N/A   Mostly Cloudy
3:35 PM 39.2 °F 31.6 °F 28.4 °F 65% 29.91 in 10.0 mi WNW 12.7 mph - N/A   Mostly Cloudy
3:55 PM 39.2 °F 33.6 °F 28.4 °F 65% 29.91 in 10.0 mi West 8.1 mph 15.0 mph N/A   Overcast
4:15 PM 39.2 °F 34.2 °F 28.4 °F 65% 29.91 in 10.0 mi WNW 6.9 mph 16.1 mph N/A   Mostly Cloudy
4:35 PM 41.0 °F 36.4 °F 28.4 °F 61% 29.91 in 10.0 mi WSW 6.9 mph 16.1 mph N/A   Mostly Cloudy
4:55 PM 41.0 °F 36.4 °F 26.6 °F 57% 29.90 in 10.0 mi West 6.9 mph - N/A   Mostly Cloudy
5:15 PM 41.0 °F 35.2 °F 28.4 °F 61% 29.90 in 10.0 mi West 9.2 mph - N/A   Mostly Cloudy
5:35 PM 39.2 °F 34.2 °F 28.4 °F 65% 29.90 in 10.0 mi West 6.9 mph - N/A   Scattered Clouds
5:55 PM 41.0 °F 38.0 °F 28.4 °F 61% 29.90 in 10.0 mi NNW 4.6 mph 11.5 mph N/A   Scattered Clouds
6:15 PM 41.0 °F 36.4 °F 28.4 °F 61% 29.90 in 10.0 mi West 6.9 mph - N/A   Mostly Cloudy
6:35 PM 41.0 °F 38.0 °F 26.6 °F 57% 29.90 in 10.0 mi WNW 4.6 mph - N/A   Overcast
6:55 PM 41.0 °F 38.0 °F 26.6 °F 57% 29.89 in 10.0 mi NW 4.6 mph - N/A   Overcast
7:15 PM 41.0 °F - 26.6 °F 57% 29.89 in 10.0 mi Calm Calm - N/A   Overcast
7:35 PM 39.2 °F - 28.4 °F 65% 29.88 in 10.0 mi Calm Calm - N/A   Mostly Cloudy
7:55 PM 39.2 °F - 30.2 °F 70% 29.88 in 10.0 mi Calm Calm - N/A   Mostly Cloudy
8:15 PM 39.2 °F - 32.0 °F 75% 29.89 in - Calm Calm - N/A   Mostly Cloudy
8:35 PM 37.4 °F - 30.2 °F 75% 29.90 in 10.0 mi Calm Calm - N/A   Overcast
8:55 PM 39.2 °F - 30.2 °F 70% 29.90 in 10.0 mi Calm Calm - N/A   Overcast
9:15 PM 39.2 °F - 30.2 °F 70% 29.92 in 10.0 mi Calm Calm - N/A   Overcast
9:35 PM 39.2 °F 37.0 °F 32.0 °F 75% 29.92 in 10.0 mi East 3.5 mph - N/A   Overcast
9:55 PM 39.2 °F 35.9 °F 30.2 °F 70% 29.92 in 10.0 mi ENE 4.6 mph - N/A   Overcast
10:15 PM 37.4 °F 32.8 °F 30.2 °F 75% 29.93 in 10.0 mi ENE 5.8 mph - N/A   Overcast
10:35 PM 37.4 °F 32.8 °F 30.2 °F 75% 29.93 in 10.0 mi ENE 5.8 mph - N/A   Overcast
10:55 PM 37.4 °F 30.8 °F 30.2 °F 75% 29.92 in 10.0 mi ENE 9.2 mph - N/A   Overcast
11:15 PM 37.4 °F 30.3 °F 30.2 °F 75% 29.92 in 10.0 mi ENE 10.4 mph - N/A   Overcast
11:35 PM 37.4 °F 28.9 °F 28.4 °F 70% 29.92 in 10.0 mi East 13.8 mph - N/A   Overcast
11:55 PM 35.6 °F 26.2 °F 28.4 °F 75% 29.91 in 10.0 mi ENE 15.0 mph - N/A   Overcast